Regional Weather Roundup
Issued by NWS

Home | Current Version | Previous Version | Graphics & Text | Print | Product List | Glossary On
Versions: 1 2 3 4 5 6 7 8 9 10 11 12 13 14 15 16 17 18 19 20 21 22 23 24 25 26 27 28 29 30 31 32 33 34 35 36 37 38 39 40 41 42 43 44 45 46 47 48 49 50
000
ASUS45 KBOI 011710
RWRID
WEATHER ROUNDUP FOR IDAHO
NATIONAL WEATHER SERVICE BOISE ID
1100 AM MDT FRI AUG 01 2014

NOTE: "FAIR" INDICATES FEW OR NO CLOUDS BELOW 12000 FEET
WITH NO SIGNIFICANT WEATHER AND/OR OBSTRUCTIONS TO VISIBILITY

IDZ012-014-011800-
SOUTHWEST IDAHO


CITY           SKY/WX    TMP DP  RH WIND       PRES   REMARKS
BOISE          MOSUNNY   82  52  35 N6        30.09R
CALDWELL       MOSUNNY   79  52  38 CALM      30.10S
MOUNTAIN HOME  PTSUNNY   82  47  29 S7        30.11S
$$

IDZ016-017-011800-
SOUTHCENTRAL IDAHO


CITY           SKY/WX    TMP DP  RH WIND       PRES   REMARKS
BURLEY         SUNNY     76  50  40 CALM      30.18F
JEROME         SUNNY     78  49  35 E8        30.18F
TWIN FALLS     SUNNY     80  46  30 VRB3      30.18F
$$

IDZ019>023-011800-
SOUTHEAST IDAHO


CITY           SKY/WX    TMP DP  RH WIND       PRES   REMARKS
IDAHO FALLS    MOSUNNY   75  48  38 NW5       30.22S
POCATELLO      MOSUNNY   77  49  37 SW5       30.20F
REXBURG        MOSUNNY   71  47  42 CALM      30.23S
$$

IDZ006-010-011-018-031-032-011800-
CENTRAL IDAHO MOUNTAINS


CITY           SKY/WX    TMP DP  RH WIND       PRES   REMARKS
MCCALL         SUNNY     73  46  38 S7        30.22S
HAILEY         MOSUNNY   75  50  41 SE5       30.27S
STANLEY          N/A     69  45  41 VRB3      30.34F
SALMON         MOSUNNY   72  48  43 N3        30.18S
CHALLIS        MOSUNNY   73  48  41 NE3       30.25F
$$

IDZ002-004-006-007-026-011800-
NORTHERN IDAHO


CITY           SKY/WX    TMP DP  RH WIND       PRES   REMARKS
LEWISTON       MOSUNNY   81  49  32 E7        30.00F
LOWELL           N/A     78  53  41 CALM      30.04F
COEUR D`ALENE  PTSUNNY   79  52  38 E14       30.06F
MULLAN PASS    CLOUDY    68  38  33 SE5       30.31R
$$


USA.gov is the U.S. government's official web portal to all federal, state and local government web resources and services.